Wind_Speed
34 35 34 34 34 36 36 37 34 33 34 33 34 36 37 39 39 38 39 40 33 35
37 38 40 39 38 39 35 34 32 34 38 39 36 35 36 39 42 40 40 42 43 41
38 39 41 42 44 43 43 41 37 36 36 37 39 37 34 37 40 40 43 42 41 44
40 41 41 43 44 44 45 45 45 43 40 38 37 37 37 37 38 37 40 42 41 44
39 40 41 42 45 45 46 46 45 42 41 40 40 39 38 39 40 38 38 42 37 41
43 44 45 45 45 44 44 45 44 43 44 43 43 42 42 41 41 41 40 41 41 43
45 45 46 45 45 45 44 45 46 45 45 45 44 44 43 43 42 42 41 42 45 42
49 47 46 46 47 46 46 46 45 46 46 46 45 46 45 44 43 43 44 44 44 44
49 49 47 47 48 48 49 49 48 48 48 48 47 43 41 41 43 44 45 45 41 41
49 49 49 49 49 50 52 50 51 52 50 50 50 44 42 41 43 46 47 46 43 42
49 50 52 52 52 53 52 52 53 53 51 51 52 43 42 41 42 45 48 49 45 45
51 54 55 56 56 55 54 54 54 52 51 50 50 43 40 39 41 45 47 47 47 45
55 56 57 56 55 52 52 53 52 52 49 48 47 43 39 38 40 44 45 45 43 42
56 54 51 51 50 51 50 49 49 51 48 46 44 43 37 38 40 43 43 43 41 42
Wind_Direction
315 311 308 306 301 299 299 298 296 292 290 286 280 278 278 278 273 272 267 259 258 245
313 310 306 304 301 298 295 294 290 285 285 287 285 281 276 273 273 272 268 266 257 252
310 307 305 303 301 300 297 294 289 285 283 283 283 280 275 272 270 270 269 267 265 260
310 308 306 303 301 299 298 295 292 289 285 280 277 276 273 269 267 264 265 264 264 262
304 302 298 296 298 298 295 294 289 286 283 279 276 274 271 269 267 263 261 261 260 260
305 303 301 299 297 295 291 289 286 283 280 278 275 272 269 268 267 265 262 262 260 260
305 303 301 298 296 294 291 288 286 283 280 277 274 271 269 266 265 264 262 260 262 260
310 306 302 299 296 294 292 289 286 283 279 277 274 270 267 265 265 263 262 259 257 259
310 307 301 298 295 292 291 289 284 281 279 277 274 269 264 261 262 262 260 260 258 258
308 304 302 299 296 293 290 286 281 280 277 273 271 268 263 259 258 258 258 258 257 258
308 305 304 302 299 297 292 287 285 281 277 274 273 266 261 258 255 255 254 255 254 256
312 310 311 308 307 304 297 291 287 282 275 272 272 264 259 256 254 253 254 254 254 254
320 315 313 310 306 307 303 298 293 286 279 272 266 263 257 251 249 251 251 253 254 253
324 319 318 314 316 313 308 304 300 294 287 278 267 261 253 248 245 248 251 252 254 255
Height
1517 1513 1508 1505 1500 1496 1492 1488 1486 1484 1482 1480 1479 1478 1476 1473 1472 1472 1472 1472 1473 1473
1511 1507 1502 1497 1493 1488 1484 1480 1478 1476 1472 1469 1467 1466 1465 1463 1461 1462 1461 1461 1462 1461
1504 1500 1495 1489 1484 1479 1474 1471 1468 1465 1462 1459 1456 1456 1455 1452 1451 1451 1450 1450 1450 1450
1497 1492 1486 1480 1475 1470 1465 1461 1457 1454 1451 1448 1446 1444 1443 1441 1440 1439 1439 1439 1438 1438
1489 1483 1477 1471 1466 1461 1455 1450 1446 1443 1439 1436 1434 1433 1430 1428 1428 1428 1427 1427 1428 1426
1479 1473 1466 1460 1454 1448 1443 1438 1434 1432 1427 1424 1422 1420 1418 1417 1415 1415 1414 1414 1414 1414
1469 1462 1455 1448 1442 1436 1431 1425 1421 1418 1414 1411 1409 1406 1405 1405 1403 1402 1402 1402 1401 1401
1457 1450 1443 1435 1429 1423 1418 1412 1408 1403 1399 1396 1394 1392 1392 1391 1390 1389 1388 1389 1388 1387
1446 1438 1431 1424 1418 1411 1405 1399 1394 1389 1385 1381 1379 1377 1379 1380 1378 1377 1376 1374 1375 1375
1437 1427 1420 1413 1406 1398 1391 1385 1379 1374 1371 1365 1363 1363 1364 1365 1364 1363 1362 1361 1362 1363
1428 1418 1409 1401 1392 1383 1376 1369 1363 1357 1354 1350 1346 1348 1348 1349 1349 1348 1347 1347 1349 1350
1419 1407 1397 1386 1377 1368 1360 1353 1346 1341 1337 1334 1329 1331 1333 1335 1334 1333 1332 1333 1334 1336
1408 1397 1385 1375 1365 1355 1347 1337 1331 1324 1320 1316 1313 1315 1317 1320 1320 1319 1319 1321 1321 1321
1398 1387 1376 1364 1354 1344 1334 1325 1316 1308 1303 1299 1299 1298 1301 1304 1306 1306 1307 1308 1309 1308